Temp
62 62 63 63 63 62 63 63 64 63 63 62 62 62 62 62 62 53 49 60 61 67 65 59 58 57 57 53 53 50 43 39 43 45 49 49 50 50 52 51 51 56 54 53 54
62 62 61 62 62 62 62 62 62 63 63 62 62 62 62 62 53 49 61 67 68 67 59 57 54 57 52 51 51 48 40 44 49 48 49 50 50 52 48 48 51 51 52 53 53
61 61 62 61 61 61 61 62 61 61 62 62 62 62 62 57 48 53 66 67 68 66 60 59 57 56 49 49 49 46 43 48 50 52 52 51 48 52 50 47 54 54 54 51 50
61 60 61 61 61 61 61 61 60 61 61 61 62 62 61 53 41 57 66 67 67 62 59 56 54 50 47 46 50 44 49 50 51 52 51 49 50 49 51 56 55 56 53 51 50
60 60 60 60 60 59 60 60 60 60 60 60 61 62 57 47 48 61 65 64 60 59 57 54 51 48 46 46 48 44 48 51 51 50 49 49 50 51 49 55 55 52 54 51 51
58 59 59 59 59 59 59 60 60 59 59 60 61 61 53 43 60 60 58 57 57 56 55 54 53 52 48 47 47 49 49 48 49 49 49 48 46 46 51 50 52 52 53 51 50
58 58 59 58 59 59 59 59 59 59 59 60 61 57 50 50 59 58 59 55 56 55 52 54 55 53 50 45 50 48 44 44 48 49 48 48 47 47 52 51 53 52 51 51 50
56 57 58 58 58 59 58 57 57 57 57 59 60 54 46 60 61 57 57 55 57 57 55 57 57 52 49 48 47 43 41 37 45 47 48 49 41 48 48 49 52 51 50 50 50
56 56 56 57 57 57 57 57 57 57 58 59 51 49 44 59 52 59 57 54 54 54 56 60 54 48 47 41 36 35 31 35 42 46 44 44 40 48 47 47 49 49 50 49 49
57 56 55 56 57 57 57 58 58 57 56 56 54 44 49 47 52 54 55 56 52 51 50 49 45 41 36 36 29 32 33 34 36 42 40 38 39 48 48 46 48 48 49 49 49
56 56 55 53 57 57 55 50 44 42 47 40 42 43 47 54 54 50 54 53 50 46 39 43 38 36 39 41 41 38 35 35 37 42 40 39 39 45 46 45 46 50 49 49 49
56 56 56 55 53 56 52 44 44 44 37 44 45 47 50 50 44 48 54 48 44 36 40 36 35 41 42 41 40 37 35 33 38 40 39 36 37 42 46 46 49 51 51 51 48
55 56 56 55 54 51 47 45 51 50 36 39 43 44 45 49 42 44 50 50 42 37 39 36 37 43 42 37 38 35 35 35 35 37 37 36 35 39 46 44 47 48 52 53 54
55 55 55 55 48 48 43 50 51 46 28 33 37 41 46 47 40 51 51 50 45 39 38 38 41 41 37 39 41 36 41 41 38 36 28 34 28 34 42 44 46 49 49 51 49
54 54 55 56 43 41 45 49 49 41 15 35 36 50 46 43 42 42 50 49 42 42 42 35 36 36 36 39 43 39 41 40 37 33 30 30 29 31 36 42 46 50 50 49 48
54 54 54 50 43 46 47 48 42 24 13 30 37 37 37 40 39 42 43 50 49 43 42 39 40 41 40 41 44 41 38 36 32 32 24 31 32 30 39 46 49 45 46 47 44
54 54 51 47 38 47 46 40 23 17 32 28 33 38 36 34 37 37 38 38 35 31 31 38 39 41 42 38 41 40 36 24 20 18 24 29 30 40 43 47 45 47 46 45 42
53 53 50 46 46 47 42 30 16 18 23 33 33 36 32 33 36 34 36 34 39 35 31 28 27 37 42 40 36 40 41 27 20 20 26 29 28 35 42 43 43 44 43 41 39
53 46 44 43 46 43 33 21 18 21 34 31 33 31 30 35 33 33 33 36 39 40 33 31 31 36 41 43 46 37 37 42 30 18 24 27 32 40 41 42 42 43 43 41 38
44 39 38 45 46 39 27 24 20 32 33 31 27 30 26 30 29 31 31 38 37 42 40 36 30 36 38 43 42 42 46 33 33 20 17 26 28 33 37 40 39 39 39 39 39
37 31 38 45 43 33 22 21 26 32 36 30 27 23 29 27 29 31 29 34 43 41 42 38 35 30 37 36 36 35 37 36 38 32 26 22 28 37 40 39 40 37 40 40 39
32 25 40 43 26 27 24 25 34 31 37 34 34 30 29 31 31 30 31 37 42 43 35 38 33 24 31 33 37 40 40 42 33 26 27 30 29 37 39 40 39 38 41 40 40
30 30 38 38 21 20 24 26 29 30 30 32 31 33 30 29 26 32 31 37 37 41 38 38 31 22 23 31 32 31 34 38 37 33 28 26 29 38 38 37 37 37 38 42 38
27 23 28 32 27 22 20 22 21 33 31 30 31 33 32 30 29 28 32 35 37 40 45 45 30 33 27 32 33 30 34 36 39 33 33 34 33 36 38 39 39 40 40 40 40
25 20 22 20 22 22 22 24 21 22 31 33 26 29 28 26 27 27 29 31 34 40 42 39 30 27 33 33 36 35 35 34 32 39 34 38 33 39 41 41 41 41 40 40 42
21 22 19 20 28 25 22 19 25 28 29 27 24 23 30 27 30 26 31 30 31 36 33 36 22 24 27 29 29 29 34 35 37 39 36 32 33 40 39 42 39 42 42 42 43
29 30 26 26 22 21 19 23 26 28 28 31 31 28 28 31 33 34 34 33 33 33 33 33 26 25 26 26 29 25 28 33 35 35 40 32 40 41 40 41 41 41 41 42 44
MSLP
1016.62 1016.54 1016.33 1016.21 1016.19 1016.13 1015.94 1015.72 1015.55 1015.55 1015.56 1015.58 1015.54 1015.47 1015.35 1015.15 1014.91 1014.85 1014.36 1012.36 1012.21 1012.14 1012.24 1013.05 1013.42 1013.56 1013.83 1014.25 1014.49 1014.78 1015.65 1015.79 1014.84 1014.35 1013.04 1012.65 1012.66 1012.45 1012.31 1012.35 1012.52 1012.65 1012.89 1013.36 1013.86
1016.40 1016.30 1016.31 1016.26 1016.15 1016.09 1015.97 1015.75 1015.30 1015.34 1015.25 1015.22 1015.34 1015.27 1015.18 1014.99 1014.91 1014.02 1011.80 1011.81 1011.78 1012.06 1012.43 1012.80 1013.43 1013.67 1014.14 1014.27 1014.56 1014.79 1015.19 1014.54 1013.45 1012.94 1012.51 1012.33 1012.45 1012.27 1012.50 1012.61 1012.64 1012.72 1013.03 1013.50 1014.07
1015.91 1015.96 1016.04 1016.04 1015.98 1015.95 1015.91 1015.80 1015.65 1015.31 1015.12 1014.98 1015.00 1015.10 1015.07 1014.98 1014.76 1011.98 1010.94 1011.15 1011.49 1011.83 1012.30 1012.56 1013.04 1013.44 1014.12 1014.27 1014.46 1014.45 1014.23 1013.59 1012.86 1012.51 1012.22 1012.34 1012.38 1012.28 1012.54 1012.76 1012.33 1012.31 1012.84 1013.82 1014.37
1015.46 1015.47 1015.55 1015.73 1015.83 1015.86 1015.79 1015.81 1015.69 1015.57 1015.30 1015.10 1014.79 1014.79 1014.80 1014.99 1014.06 1011.54 1010.94 1010.82 1011.09 1011.77 1012.45 1012.87 1013.33 1013.79 1013.95 1014.18 1013.85 1014.21 1013.46 1013.26 1012.62 1012.37 1012.49 1012.47 1012.32 1012.35 1012.26 1011.57 1011.41 1011.92 1012.61 1013.65 1014.20
1015.08 1015.11 1015.15 1015.24 1015.54 1015.72 1015.78 1015.75 1015.70 1015.53 1015.45 1015.28 1015.00 1014.67 1014.76 1014.58 1013.23 1011.63 1011.41 1011.26 1011.50 1011.84 1012.13 1012.85 1013.32 1013.57 1013.66 1013.77 1013.77 1013.76 1013.08 1012.74 1012.58 1012.54 1012.56 1012.54 1012.45 1012.56 1011.90 1011.25 1011.28 1011.84 1012.39 1013.08 1013.62
1014.68 1014.71 1014.68 1014.78 1014.73 1015.13 1015.46 1015.56 1015.47 1015.55 1015.42 1015.33 1015.05 1014.87 1014.78 1013.58 1012.12 1011.76 1011.85 1011.93 1011.87 1012.09 1012.19 1012.42 1012.58 1012.90 1013.21 1013.33 1013.31 1012.70 1012.76 1012.66 1012.51 1012.59 1012.68 1012.90 1012.68 1012.52 1011.07 1011.00 1011.40 1011.75 1012.05 1012.52 1013.15
1014.29 1014.22 1014.22 1014.36 1014.56 1014.53 1014.77 1015.16 1015.27 1015.26 1015.36 1015.16 1015.08 1015.06 1014.04 1012.30 1011.80 1011.77 1011.75 1012.07 1012.10 1012.15 1012.28 1012.16 1012.17 1012.55 1012.89 1013.21 1012.81 1012.79 1013.07 1013.01 1012.78 1012.79 1012.83 1013.01 1012.90 1011.75 1010.89 1010.97 1011.28 1011.72 1012.09 1012.30 1012.51
1014.00 1013.65 1013.75 1013.85 1014.08 1014.24 1014.15 1014.58 1015.07 1015.12 1015.14 1015.02 1014.84 1014.80 1012.65 1011.74 1011.62 1011.89 1011.82 1011.96 1012.01 1012.09 1012.03 1011.97 1012.13 1012.46 1012.78 1013.07 1013.20 1013.36 1013.58 1013.61 1012.76 1012.87 1012.80 1013.12 1012.36 1011.05 1010.70 1011.06 1011.28 1011.33 1011.69 1012.03 1012.09
1013.31 1013.37 1013.25 1013.48 1013.57 1013.86 1014.04 1013.87 1014.44 1014.67 1014.74 1014.86 1014.87 1014.80 1012.26 1010.98 1011.15 1011.02 1011.50 1011.76 1011.89 1012.00 1012.00 1012.01 1012.32 1012.69 1012.95 1013.63 1014.27 1014.23 1014.21 1014.05 1013.34 1012.88 1012.99 1013.19 1012.35 1011.00 1010.90 1011.13 1011.35 1011.41 1011.54 1011.70 1011.79
1012.58 1012.53 1012.65 1012.82 1012.97 1013.39 1013.54 1013.82 1013.67 1014.20 1014.36 1014.48 1014.60 1014.90 1011.82 1010.73 1010.56 1010.58 1010.88 1011.54 1011.70 1012.05 1012.32 1012.41 1012.73 1012.98 1013.48 1013.79 1013.78 1014.61 1014.52 1013.96 1013.71 1013.26 1013.38 1013.34 1012.71 1011.23 1011.21 1011.34 1011.38 1011.31 1011.15 1011.30 1011.30
1011.94 1011.90 1012.11 1012.47 1012.38 1012.76 1013.30 1013.89 1014.26 1014.23 1013.79 1012.65 1012.44 1011.54 1010.33 1009.97 1010.00 1010.56 1010.56 1011.21 1011.68 1012.06 1012.34 1012.48 1012.81 1011.73 1012.71 1012.96 1013.28 1013.74 1014.00 1013.93 1013.55 1013.11 1013.44 1013.24 1012.62 1011.70 1011.24 1011.50 1011.23 1010.69 1010.49 1010.35 1010.14
1011.03 1011.11 1011.20 1011.53 1011.97 1011.92 1012.44 1012.68 1012.73 1013.59 1013.01 1012.31 1011.69 1011.37 1010.46 1010.19 1010.11 1010.16 1010.41 1011.02 1011.48 1011.71 1012.29 1012.87 1011.30 1012.05 1012.58 1013.02 1013.31 1013.60 1013.92 1013.96 1013.53 1013.37 1013.81 1013.37 1012.56 1011.68 1010.81 1010.70 1010.34 1010.01 1009.66 1009.32 1009.32
1010.13 1010.22 1010.45 1010.85 1011.01 1011.52 1011.26 1011.87 1012.34 1012.70 1012.88 1011.14 1010.59 1010.15 1010.13 1010.68 1010.11 1009.67 1010.03 1009.99 1010.53 1011.57 1011.52 1011.46 1011.24 1011.86 1012.34 1012.69 1013.20 1013.38 1013.55 1013.91 1013.74 1013.69 1013.86 1013.71 1012.15 1011.26 1009.69 1009.35 1009.11 1009.08 1008.73 1008.49 1008.27
1009.23 1009.39 1009.82 1010.24 1010.92 1010.58 1010.39 1011.86 1012.30 1013.35 1013.36 1010.30 1009.56 1008.26 1009.19 1009.75 1009.45 1009.07 1009.22 1009.42 1009.96 1010.34 1011.53 1011.73 1011.20 1011.52 1011.87 1012.13 1012.43 1012.90 1013.19 1013.54 1013.98 1014.35 1014.70 1014.07 1012.29 1011.05 1009.78 1009.04 1008.53 1008.14 1008.05 1007.61 1007.90
1008.43 1008.50 1008.82 1009.40 1009.64 1009.66 1010.34 1011.23 1012.59 1014.15 1012.09 1008.63 1008.00 1006.92 1007.31 1008.19 1007.89 1008.03 1008.41 1008.92 1008.96 1009.40 1010.69 1010.22 1010.79 1011.47 1011.69 1011.00 1011.93 1011.84 1012.42 1013.37 1014.13 1014.70 1014.75 1014.37 1014.22 1010.51 1009.98 1009.04 1007.97 1007.21 1007.24 1007.62 1007.77
1007.32 1007.57 1008.11 1008.68 1009.16 1009.56 1009.79 1011.19 1013.09 1013.85 1010.41 1008.23 1007.45 1006.80 1007.44 1007.57 1007.80 1008.06 1008.17 1008.56 1008.52 1009.25 1009.50 1009.82 1009.98 1010.12 1009.67 1010.46 1010.99 1011.72 1012.80 1013.92 1014.64 1015.26 1014.87 1013.84 1013.91 1010.01 1009.43 1008.28 1007.16 1006.75 1007.17 1007.86 1008.20
1006.25 1006.57 1007.39 1007.79 1008.48 1009.03 1009.42 1011.67 1012.87 1011.29 1009.27 1008.26 1007.46 1006.87 1006.73 1006.66 1007.48 1007.34 1007.78 1008.24 1008.01 1008.79 1009.42 1009.91 1009.79 1009.45 1009.52 1010.19 1011.04 1010.93 1012.00 1013.93 1015.06 1015.47 1013.97 1013.32 1013.09 1009.13 1008.19 1007.39 1007.17 1007.12 1007.20 1007.80 1008.48
1005.29 1005.80 1006.30 1007.19 1007.94 1007.83 1009.35 1011.35 1010.94 1009.28 1008.51 1007.22 1006.74 1006.74 1006.62 1006.65 1007.07 1007.00 1007.10 1007.42 1007.60 1007.72 1008.39 1009.00 1009.62 1008.87 1008.67 1008.75 1009.61 1010.42 1010.58 1011.32 1012.61 1013.57 1013.83 1013.65 1011.41 1008.41 1007.20 1006.87 1006.95 1007.11 1007.23 1007.69 1008.60
1004.37 1005.09 1006.16 1007.03 1007.01 1008.15 1009.46 1009.65 1008.61 1008.09 1007.31 1007.02 1006.81 1006.62 1006.79 1006.67 1006.43 1006.76 1006.57 1006.11 1006.07 1006.44 1007.22 1007.90 1008.27 1007.95 1007.82 1007.92 1008.25 1009.30 1009.20 1009.30 1011.20 1012.51 1013.08 1011.96 1010.06 1008.36 1006.86 1006.76 1006.75 1006.97 1007.35 1007.73 1008.53
1002.96 1004.51 1005.52 1005.82 1006.79 1007.73 1009.33 1008.36 1008.14 1007.56 1007.12 1006.78 1006.50 1006.05 1006.58 1006.55 1006.56 1006.46 1006.19 1005.43 1005.80 1005.96 1006.11 1006.61 1007.61 1007.70 1007.89 1007.63 1007.91 1007.34 1007.80 1009.43 1010.17 1011.46 1012.05 1010.85 1009.87 1008.13 1007.12 1006.78 1006.97 1007.06 1007.32 1007.71 1008.29
1003.10 1004.24 1005.33 1005.29 1006.50 1007.77 1008.29 1008.06 1007.96 1007.48 1007.45 1007.30 1006.49 1006.50 1006.32 1006.21 1006.43 1005.90 1004.75 1004.47 1004.33 1004.83 1006.02 1006.24 1006.61 1008.17 1008.15 1007.49 1006.91 1007.65 1007.78 1008.25 1008.80 1010.02 1010.15 1010.13 1008.70 1007.36 1006.97 1006.89 1007.13 1007.39 1007.54 1007.90 1008.26
1003.17 1004.74 1004.51 1005.25 1006.55 1007.37 1007.73 1007.74 1007.54 1007.54 1007.66 1007.44 1007.07 1006.84 1006.35 1005.78 1005.79 1005.95 1005.08 1004.29 1003.68 1004.33 1005.38 1005.47 1006.59 1007.89 1007.88 1007.65 1007.28 1006.78 1006.88 1007.17 1007.81 1009.05 1009.29 1009.24 1008.35 1007.50 1007.33 1007.42 1007.60 1007.75 1007.80 1008.05 1008.55
1002.95 1004.09 1004.85 1005.30 1006.14 1007.46 1007.98 1007.82 1007.73 1007.95 1007.95 1007.55 1007.32 1007.03 1006.69 1006.25 1005.96 1005.26 1004.96 1004.41 1004.36 1004.57 1004.31 1004.84 1006.11 1007.67 1008.45 1008.47 1007.91 1007.34 1007.03 1006.85 1007.55 1008.04 1008.52 1008.79 1008.07 1007.79 1007.71 1007.81 1007.85 1008.03 1008.14 1008.44 1008.63
1002.09 1004.14 1005.54 1006.05 1006.64 1007.45 1008.05 1008.21 1008.20 1008.23 1008.00 1007.84 1007.61 1007.37 1007.09 1006.72 1006.07 1005.47 1005.09 1004.76 1004.65 1004.59 1004.51 1004.61 1005.56 1005.88 1005.98 1005.71 1006.44 1007.24 1006.68 1006.59 1006.79 1007.35 1007.24 1007.36 1007.60 1007.74 1007.88 1007.97 1008.14 1008.32 1008.41 1008.58 1008.92
1001.57 1004.15 1004.72 1006.20 1007.08 1007.61 1007.92 1008.30 1008.32 1008.35 1008.19 1007.91 1007.82 1007.53 1007.25 1007.13 1006.53 1006.02 1005.41 1005.28 1005.27 1004.60 1004.65 1004.94 1005.56 1006.14 1006.07 1006.14 1006.12 1006.19 1006.54 1006.72 1006.71 1006.34 1006.83 1006.63 1007.14 1007.19 1007.19 1007.53 1008.04 1008.22 1008.50 1008.71 1008.88
1001.24 1003.25 1005.40 1006.21 1006.72 1007.66 1007.85 1008.22 1007.94 1008.06 1008.13 1008.01 1007.81 1007.53 1007.32 1007.18 1006.83 1006.48 1006.14 1005.38 1004.99 1005.11 1005.08 1005.36 1005.49 1006.24 1006.98 1006.82 1006.46 1006.44 1006.10 1006.29 1006.39 1006.14 1006.40 1006.59 1006.80 1006.44 1006.59 1007.35 1007.96 1008.18 1008.50 1008.58 1008.42
1001.24 1002.46 1003.69 1006.31 1006.73 1007.34 1007.67 1007.60 1007.47 1007.57 1007.96 1007.70 1007.52 1007.54 1007.18 1006.86 1007.03 1006.65 1006.15 1006.05 1005.20 1004.68 1005.10 1005.42 1005.97 1006.52 1006.77 1007.34 1007.10 1007.05 1005.96 1006.02 1006.12 1006.13 1006.01 1006.34 1005.87 1006.43 1006.88 1007.31 1007.57 1008.01 1008.42 1008.49 1008.62
Wind_Speed
18 17 15 13 12 12 14 13 13 12 11 9 9 9 10 12 12 1 7 11 7 9 8 7 3 3 3 3 3 3 3 4 6 7 6 4 5 2 1 2 3 6 4 1 8
15 17 16 16 13 13 13 14 14 12 9 10 9 9 10 13 4 9 13 10 10 12 6 9 6 6 2 3 2 4 5 10 6 6 5 3 4 5 2 1 4 3 2 4 8
12 13 17 18 14 13 13 14 15 13 10 9 8 8 8 5 5 8 2 16 11 11 4 4 7 6 4 3 5 5 7 5 4 5 4 4 3 5 5 5 10 9 6 7 6
14 13 12 16 16 14 13 14 12 14 12 10 8 8 7 1 7 4 10 12 10 8 6 6 5 7 6 7 5 4 7 5 2 3 4 4 2 4 8 9 3 8 4 8 10
16 14 13 12 13 13 14 15 14 11 11 11 12 10 2 3 10 6 6 7 6 7 8 6 5 6 7 6 6 4 5 6 5 2 3 1 6 7 8 12 7 2 6 10 11
19 17 15 12 12 12 14 16 16 14 10 12 11 16 2 9 6 3 3 3 3 4 6 7 8 6 5 5 7 6 6 1 2 3 3 4 3 1 6 3 7 7 9 9 10
17 20 18 14 13 12 9 13 16 16 11 10 11 6 9 16 2 3 4 1 1 3 4 4 4 6 5 2 5 4 2 2 5 4 4 5 8 14 7 3 6 6 7 9 11
17 15 20 17 15 14 12 8 7 9 13 12 10 4 14 5 10 9 3 4 4 5 3 5 5 3 3 1 5 4 3 2 3 7 4 7 11 4 1 4 9 7 8 7 9
17 16 15 20 17 15 13 12 7 6 9 12 4 4 12 2 8 14 8 6 4 3 5 3 4 4 4 6 2 6 4 6 7 9 4 6 7 5 1 2 7 7 7 7 8
21 18 14 21 20 18 15 12 9 5 5 3 5 8 7 8 5 5 6 6 4 5 3 4 3 5 2 6 9 7 6 4 5 4 4 4 10 15 6 4 9 9 8 9 9
22 20 20 16 22 22 13 3 1 4 8 10 10 12 4 14 4 4 5 8 5 5 9 6 7 20 13 11 7 5 4 5 4 4 4 8 8 16 4 5 11 13 10 10 12
23 22 21 21 17 24 11 8 8 3 8 21 20 18 13 3 5 7 10 11 8 6 6 3 18 7 10 7 6 5 5 4 3 2 4 5 11 12 11 8 10 12 11 12 6
23 22 20 22 20 19 15 17 10 9 7 8 17 19 9 8 6 8 14 8 9 9 15 12 2 12 12 7 10 5 8 5 4 1 3 5 9 7 11 4 6 10 14 13 15
23 23 23 23 17 13 10 8 7 10 6 6 8 10 11 6 7 9 12 10 6 18 9 10 4 12 8 15 13 15 7 6 4 3 5 1 11 6 6 7 6 10 10 14 8
25 25 25 24 6 9 8 10 11 5 6 7 8 7 13 15 9 8 8 5 12 9 8 9 9 10 9 9 13 9 10 10 4 2 3 3 4 8 3 7 11 11 10 8 8
26 23 23 15 5 6 12 13 6 6 9 3 6 13 15 13 6 5 6 4 4 6 3 7 3 9 12 6 14 8 9 7 5 4 9 8 6 6 7 8 7 1 2 7 8
25 23 17 9 9 11 15 10 7 8 1 5 7 16 21 15 16 8 15 19 11 9 9 1 5 4 5 7 4 4 10 2 2 0 9 3 7 12 6 10 6 6 7 7 7
25 22 16 8 9 16 11 9 6 9 10 3 5 12 19 7 15 7 18 18 15 6 7 11 7 10 6 8 12 13 13 8 9 6 5 0 11 9 7 6 6 6 4 1 3
26 10 6 8 13 11 7 9 11 6 9 7 4 11 9 10 9 9 16 27 23 19 12 13 12 2 8 5 16 8 15 9 6 2 3 6 8 10 6 7 4 6 4 3 1
12 6 7 15 15 10 4 9 6 2 2 2 11 8 10 14 7 20 14 14 14 19 3 6 5 4 3 5 1 13 11 6 2 5 4 5 5 5 3 5 2 2 3 1 2
6 5 7 12 8 6 8 8 5 1 1 2 3 4 8 9 7 17 11 5 26 20 12 7 4 1 6 10 14 5 10 2 4 5 6 2 6 7 5 3 6 2 2 3 3
5 5 9 11 5 3 5 7 3 3 2 3 3 3 6 9 13 12 12 20 14 14 21 9 5 4 8 2 3 4 9 20 9 7 3 1 7 3 3 6 4 2 4 4 4
5 5 4 3 8 4 1 4 3 5 4 5 3 3 3 5 4 12 4 4 1 16 17 13 6 5 3 5 3 5 3 4 5 4 7 6 7 1 4 4 2 2 2 2 2
4 7 4 1 3 7 5 2 5 3 2 2 2 2 2 4 3 5 10 5 7 13 10 15 3 18 15 17 6 8 11 10 18 12 11 10 5 5 6 6 5 5 5 4 3
3 3 2 9 9 5 4 7 6 6 4 5 2 7 3 3 4 4 4 3 4 6 12 9 16 4 7 3 9 13 12 10 9 17 13 14 8 8 10 11 8 6 4 4 5
7 7 3 1 14 7 2 6 9 5 8 6 6 4 6 6 8 4 3 4 7 6 8 5 5 5 3 2 5 4 11 13 16 15 7 5 7 6 2 7 6 8 6 5 6
1 3 7 5 5 8 5 7 7 9 3 3 3 4 6 6 3 6 6 4 2 7 10 11 5 6 20 5 6 2 11 13 11 6 15 10 11 5 4 8 8 8 5 6 6
Wind_Direction
303 310 307 309 316 319 327 288 245 248 244 256 278 298 311 320 319 116 242 222 195 172 114 117 97 136 98 135 115 147 82 210 226 162 241 160 187 183 323 153 217 197 177 175 129
290 294 305 299 296 304 318 321 293 258 251 247 268 289 310 323 287 242 234 234 219 161 118 146 156 136 155 175 179 133 162 214 209 196 210 190 181 173 137 254 271 263 165 99 139
264 281 283 291 290 292 304 316 321 312 294 245 254 284 312 348 309 250 238 216 195 171 152 138 121 141 170 142 199 181 210 214 247 232 174 181 218 173 177 219 222 208 198 166 169
260 254 267 280 288 288 297 298 307 314 335 327 273 277 320 45 261 339 330 188 184 141 121 122 129 150 164 192 182 186 229 187 253 201 161 197 148 235 191 225 148 224 143 164 184
264 253 249 249 270 280 287 289 293 305 319 324 330 308 357 229 254 320 14 95 99 137 162 155 153 142 180 194 136 212 224 184 241 182 246 307 242 246 250 253 241 192 173 193 197
269 257 246 237 227 250 267 279 285 282 296 307 320 331 206 239 257 321 87 61 120 143 169 152 191 196 177 203 179 211 202 221 188 210 239 224 271 70 258 240 247 218 213 207 203
296 269 249 239 242 236 242 272 277 272 276 298 310 335 251 245 229 147 135 210 223 187 175 207 158 167 142 180 223 152 167 247 227 207 243 170 285 239 226 230 260 255 243 225 213
288 287 255 239 235 233 201 198 272 310 280 286 318 338 262 220 240 271 155 262 236 219 221 197 164 166 182 191 24 137 68 158 245 149 223 155 259 263 19 190 261 272 257 239 234
271 281 283 244 224 210 207 182 205 262 288 271 315 225 261 84 204 227 159 201 162 198 231 98 136 179 110 118 32 355 183 209 290 196 143 179 261 255 104 162 283 281 277 261 260
270 259 265 269 226 213 207 218 192 282 276 261 238 285 246 227 199 193 171 163 162 134 148 156 128 168 115 145 198 188 213 219 219 211 188 203 256 272 246 282 269 275 271 263 251
266 261 250 250 238 220 203 181 111 268 204 206 198 228 304 218 123 191 167 134 125 155 176 203 179 206 186 194 183 169 182 196 230 197 168 229 251 261 257 294 284 277 263 255 246
260 255 252 247 255 226 188 205 161 142 267 223 245 234 248 6 194 207 148 167 165 176 135 143 230 180 162 190 157 152 171 215 298 141 172 295 265 258 268 239 233 254 266 256 245
261 256 248 243 238 237 197 201 143 80 258 225 215 229 221 208 245 214 172 164 166 170 194 200 210 163 175 163 178 185 172 174 199 72 235 313 276 233 259 213 249 255 249 263 250
270 252 246 250 241 218 189 162 86 86 266 229 199 216 178 172 245 198 195 168 191 198 158 236 187 171 176 205 181 214 160 171 165 122 238 60 284 289 256 267 236 259 245 248 265
264 255 246 241 153 185 151 138 104 72 254 217 178 163 165 181 140 223 172 190 181 159 156 219 160 152 195 187 177 211 165 191 155 146 10 186 304 274 323 294 260 252 279 279 275
255 245 247 218 130 189 136 124 94 201 230 273 153 177 163 193 192 123 149 224 161 168 212 202 192 173 186 153 174 134 93 61 55 98 257 173 181 223 182 214 258 162 319 325 323
251 233 235 160 169 167 129 132 191 208 130 208 191 188 186 187 193 174 169 190 176 162 197 122 188 187 150 108 125 129 133 83 2 203 241 290 194 253 275 265 236 274 297 314 327
245 225 230 157 156 137 133 167 187 203 224 183 170 200 196 170 202 173 171 187 206 168 155 179 203 163 181 174 164 183 177 170 187 192 206 150 230 244 215 276 268 270 282 286 334
228 203 196 160 145 127 168 177 197 188 204 175 163 189 208 193 193 176 193 197 196 188 178 185 225 154 173 163 154 204 203 173 105 52 107 209 282 289 255 266 275 298 309 319 33
194 158 160 152 147 128 179 218 201 215 2 123 196 175 190 193 177 190 185 200 206 204 195 205 187 206 164 110 315 184 167 165 198 167 239 252 264 238 257 233 287 296 288 308 76
106 122 161 141 117 129 201 217 194 148 125 284 233 216 198 179 200 202 200 216 199 197 187 170 151 185 134 200 177 151 186 131 142 160 202 211 253 223 241 200 141 80 43 68 82
113 131 150 153 118 181 206 164 126 119 154 278 303 254 226 207 196 208 225 218 210 174 193 186 134 153 200 349 350 203 184 198 196 206 220 111 260 320 165 121 113 71 11 13 51
125 104 46 194 160 168 60 133 108 152 213 198 250 224 312 245 218 201 186 223 202 187 186 178 187 133 22 352 0 215 193 186 166 107 192 173 248 86 137 142 162 202 352 352 350
120 121 69 34 83 132 129 138 143 178 246 198 204 261 199 271 263 250 205 212 188 210 208 169 153 208 209 215 134 184 196 190 194 211 209 213 184 206 211 206 203 233 255 285 281
46 136 151 182 178 132 129 159 153 163 222 191 266 212 188 296 255 220 260 153 250 218 205 181 214 174 210 174 182 196 200 187 191 216 211 229 190 214 206 197 207 209 236 260 264
122 128 48 85 146 132 182 195 176 169 183 219 220 229 181 228 217 262 258 197 196 199 183 183 239 113 198 17 119 173 207 191 205 218 219 136 238 216 188 150 186 198 217 261 287
110 65 100 132 114 128 195 173 175 141 207 233 237 209 203 214 216 208 174 288 282 177 192 171 138 153 218 142 85 271 207 190 210 208 204 195 217 177 189 204 195 192 211 234 274